User: anonymous   Login
Location: Red Shale Campground
(45.5700°N, 106.1600°W)
Time: 16:41:00
(UTC-06:00)
Language:

FENGYUN 3A - Orbit

View from above orbital plane
View from above orbital plane
View from above satellite
View from above satellite

Ground track
Ground track

The orbit data is extracted from the following two-line orbital elements,

1 32958U 08026A   18114.58781879  .00000004  00000-0  20941-4 0  9995
2 32958  98.3846 132.2783 0010840  93.4808 266.7612 14.19700445513518
Epoch (UTC): 24 April 2018 14:06:27
Eccentricity: 0.0010840
inclination: 98.3846°
perigee height: 818 km
apogee height: 834 km
right ascension of ascending node: 132.2783°
argument of perigee: 93.4808°
revolutions per day: 14.19700445
mean anomaly at epoch: 266.7612°
orbit number at epoch: 51351

The dashed part of the orbit path shows where the satellite is in the earth's shadow,  

DLR